Terminal Aerodrome Forecast
Issued by NWS

Home | Current Version | Previous Version | Text Only | Print | Product List | Glossary On
Versions: 1 2 3 4 5 6 7 8 9 10 11 12 13 14 15 16 17 18 19 20 21 22 23
000
FTUS44 KTSA 212325
TAFBVO
TAF
KBVO 212325Z 2200/2224 00000KT P6SM VCSH BKN090 OVC110
     FM220300 05003KT 6SM -SHRA BKN025
      TEMPO 2203/2207 3SM -SHRA BR BKN012
     FM220800 02003KT 3SM -RA BR OVC007
     FM221300 35012KT 5SM -RA BR OVC012
     FM221700 34012KT P6SM BKN025=

USA.gov is the U.S. government's official web portal to all federal, state and local government web resources and services.